Regional Weather Roundup
Issued by NWS Goodland, KS

Home | Current Version | Previous Version | Graphics & Text | Print | Product List | Glossary On
Versions: 1 2 3 4 5 6 7 8 9 10 11 12 13 14 15 16 17 18 19 20 21 22 23 24 25 26 27 28 29 30 31 32 33 34 35 36 37 38 39 40 41 42 43 44 45 46 47 48 49 50
000
ASUS43 KGLD 240008
RWRGLD

GOODLAND FORECAST AREA HOURLY WEATHER ROUNDUP
NATIONAL WEATHER SERVICE GOODLAND KS
600 PM MDT THU OCT 23 2014

...OFFICIAL OBSERVATIONS...

CITY           SKY/WX    TMP DP  RH WIND       PRES   REMARKS
GOODLAND KS    PTCLDY    63  53  70 S12       30.07R
HILL CITY KS   MOCLDY    67  57  70 SW3       30.04R
IMPERIAL NEB   CLEAR     70  37  29 S5        30.01S
MCCOOK NEB     MOCLDY    67  51  56 S7        30.01S
AKRON CO       CLEAR     62  34  35 W6        30.08R
BURLINGTON CO  MOCLDY    65  41  41 S10       30.08S
LIMON CO       CLEAR     61  36  39 S6        30.14R
$$

...UNOFFICIAL OBSERVATIONS...

CITY           SKY/WX    TMP DP  RH WIND       PRES   REMARKS
COLBY KS       CLEAR     63  61  94 S8        30.07R
GOVE KS          N/A     65  32  29 MISG        N/A
NORTON KS      CLEAR     63  48  59 S6        30.02S
SHARON SPRINGS   N/A     64  57  78 S7          N/A
TRIBUNE KS     MOCLDY    63  59  88 E6        30.11R
KIT CARSON CO    N/A     70  44  38 CALM        N/A
YUMA CO          N/A     65  30  27 SW5         N/A
$$



USA.gov is the U.S. government's official web portal to all federal, state and local government web resources and services.